Change the Weather History Date:

Saturday, December 1, 2012

  Actual Average Record
Temperature  
Mean Temperature 58 °F 49 °F  
Max Temperature 73 °F 60 °F 78 °F (1982)
Min Temperature 42 °F 38 °F 21 °F (1965)
Degree Days  
Heating Degree Days 7 16  
Month to date heating degree days 7 16  
Since 1 July heating degree days 604 484  
Cooling Degree Days 0 0  
Month to date cooling degree days 0 0  
Year to date cooling degree days 2241 2159  
Growing Degree Days 8 (Base 50)    
Moisture  
Dew Point 47 °F    
Average Humidity 65    
Maximum Humidity 92    
Minimum Humidity 38    
Precipitation  
Precipitation 0.00 in 0.20 in 2.82 in (1991)
Month to date precipitation 0.00 0.20  
Year to date precipitation 37.19 46.32  
Sea Level Pressure  
Sea Level Pressure 30.20 in    
Wind  
Wind Speed 7 mph (South)    
Max Wind Speed 14 mph    
Max Gust Speed 18 mph    
Visibility 10 miles    
Events      
T = Trace of Precipitation, MM = Missing Value Source: NWS Daily Summary

Daily Weather History Graph

Daily Weather History Graph

Search for Another Location

Airport or City:

Trip Planner

Search our weather history database for the weather conditions in past years. The results will help you decide how hot, cold, wet, or windy it might be!

Date:

Astronomy

Dec. 01, 2012 Rise Set
Actual Time 6:46 AM CST 4:52 PM CST
Civil Twilight 6:19 AM CST 5:19 PM CST
Nautical Twilight 5:48 AM CST 5:50 PM CST
Astronomical Twilight 5:18 AM CST 6:20 PM CST
Moon 7:39 PM CST (12/1) 9:01 AM CST (12/1)
Length of Visible Light 10h 59m
Length of Day
10h 05m
Waning Gibbous, 91% of the Moon is Illuminated
Dec 1
Waning Gibbous
Dec 6
Last Quarter
Dec 13
New
Dec 19
First Quarter
Dec 28
Full

Hourly Weather History & Observations

Time (CST) Temp. Dew Point Humidity Pressure Visibility Wind Dir Wind Speed Gust Speed Precip Events Conditions
12:53 AM 45.0 °F 41.0 °F 86% 30.22 in 10.0 mi Calm Calm - N/A   Clear
1:53 AM 43.0 °F 39.9 °F 89% 30.22 in 10.0 mi Calm Calm - N/A   Clear
2:53 AM 45.0 °F 43.0 °F 93% 30.22 in 10.0 mi Calm Calm - N/A   Clear
3:53 AM 45.0 °F 43.0 °F 93% 30.22 in 10.0 mi Calm Calm - N/A   Clear
4:53 AM 44.1 °F 42.1 °F 93% 30.23 in 9.0 mi Calm Calm - N/A   Clear
5:53 AM 44.1 °F 42.1 °F 93% 30.23 in 9.0 mi Calm Calm - N/A   Clear
6:53 AM 44.1 °F 43.0 °F 96% 30.24 in 7.0 mi Calm Calm - N/A   Clear
7:53 AM 51.1 °F 46.9 °F 86% 30.25 in 9.0 mi Calm Calm - N/A   Clear
8:53 AM 59.0 °F 53.1 °F 81% 30.26 in 10.0 mi SSE 5.8 mph - N/A   Overcast
9:53 AM 64.9 °F 53.1 °F 65% 30.25 in 10.0 mi South 8.1 mph - N/A   Clear
10:53 AM 69.1 °F 52.0 °F 54% 30.24 in 10.0 mi South 11.5 mph - N/A   Clear
11:53 AM 71.1 °F 50.0 °F 47% 30.21 in 10.0 mi SSE 9.2 mph - N/A   Clear
12:53 PM 72.0 °F 50.0 °F 46% 30.19 in 10.0 mi SSW 9.2 mph - N/A   Clear
1:53 PM 73.0 °F 46.9 °F 39% 30.17 in 10.0 mi South 11.5 mph - N/A   Clear
2:53 PM 73.4 °F 46.4 °F 38% 30.16 in 10.0 mi South 12.7 mph - N/A   Partly Cloudy
3:53 PM 71.1 °F 46.9 °F 42% 30.16 in 10.0 mi South 10.4 mph - N/A   Clear
4:53 PM 64.9 °F 46.0 °F 50% 30.16 in 10.0 mi SSE 5.8 mph - N/A   Clear
5:53 PM 63.0 °F 46.9 °F 56% 30.16 in 10.0 mi SSE 6.9 mph - N/A   Clear
6:53 PM 64.0 °F 46.9 °F 54% 30.16 in 10.0 mi SSE 10.4 mph - N/A   Clear
7:53 PM 60.1 °F 46.9 °F 62% 30.16 in 10.0 mi South 9.2 mph - N/A   Clear
8:53 PM 61.0 °F 50.0 °F 67% 30.17 in 10.0 mi South 11.5 mph - N/A   Clear
9:53 PM 61.0 °F 52.0 °F 72% 30.16 in 10.0 mi South 11.5 mph - N/A   Clear
10:53 PM 61.0 °F 55.0 °F 81% 30.17 in 10.0 mi South 11.5 mph - N/A   Clear
11:53 PM 61.0 °F 55.9 °F 83% 30.18 in 10.0 mi South 10.4 mph - N/A   Clear